W8SZ Weather Reports


Display with metric or nautical units.
time (UTC)temp
F
wind
direction
speed
MPH
gust
MPH
rain 1hr
in
rain 24hr
in
rain mn
in
humidity
%
barometer
mb
20220118105338 19 0 2.0 0.0 0.00 0.00 0.00 90 1012.2
20220118104846 19 9 4.0 0.0 0.00 0.00 0.00 90 1012.2
20220118104349 19 0 3.0 0.0 0.00 0.00 0.00 90 1012.5
20220118103855 19 2 1.0 0.0 0.00 0.00 0.00 90 1012.1
20220118103359 19 18 4.0 0.0 0.00 0.00 0.00 90 1012.1
20220118102852 20 0 1.0 0.0 0.00 0.00 0.00 90 1012.3
20220118102343 20 0 1.0 0.0 0.00 0.00 0.00 90 1012.0
20220118101840 20 5 5.0 0.0 0.00 0.00 0.00 90 1011.9
20220118101342 20 25 2.0 0.0 0.00 0.00 0.00 91 1011.7
20220118100844 20 336 3.0 0.0 0.00 0.00 0.00 91 1011.7
20220118100357 20 21 6.0 0.0 0.00 0.00 0.00 90 1011.2
20220118095833 20 0 3.0 0.0 0.00 0.00 0.00 90 1011.4
20220118095343 20 12 5.0 0.0 0.00 0.00 0.00 91 1011.4
20220118094848 20 2 10.0 0.0 0.00 0.00 0.00 91 1011.2
20220118094354 20 28 8.0 0.0 0.00 0.00 0.00 91 1011.3
20220118093838 21 21 4.0 0.0 0.00 0.00 0.00 90 1011.1
20220118093408 21 0 3.0 0.0 0.00 0.00 0.00 90 1010.9
20220118092844 21 21 3.0 0.0 0.00 0.00 0.00 91 1011.0
20220118092345 21 17 6.0 0.0 0.00 0.00 0.00 90 1011.0
20220118091847 21 22 5.0 0.0 0.00 0.00 0.00 91 1011.1
20220118091348 21 0 1.0 0.0 0.00 0.00 0.00 91 1011.0
20220118090841 21 17 8.0 0.0 0.00 0.00 0.00 91 1010.7
20220118090348 21 347 7.0 0.0 0.00 0.00 0.00 90 1010.5
20220118085838 21 18 3.0 0.0 0.00 0.00 0.00 91 1010.7
20220118085344 21 0 7.0 0.0 0.00 0.00 0.00 91 1010.8
20220118084846 22 12 4.0 0.0 0.00 0.00 0.00 90 1011.0
20220118084356 22 21 8.0 0.0 0.00 0.00 0.00 91 1010.7
20220118083841 22 359 6.0 0.0 0.00 0.00 0.00 91 1010.5
20220118083354 22 16 6.0 0.0 0.00 0.00 0.00 91 1010.3
20220118082849 22 15 2.0 0.0 0.00 0.00 0.00 91 1010.1
20220118082353 23 25 8.0 0.0 0.00 0.00 0.00 92 1010.3
20220118081836 23 16 7.0 0.0 0.00 0.00 0.00 92 1010.3
20220118081346 23 42 11.0 0.0 0.00 0.00 0.00 92 1010.4
20220118080852 23 6 6.0 0.0 0.00 0.00 0.00 92 1009.8
20220118080355 23 355 3.0 0.0 0.00 0.00 0.00 92 1009.6
20220118075855 23 0 1.0 0.0 0.00 0.00 0.00 91 1010.0
20220118075337 24 0 3.0 0.0 0.00 0.00 0.00 90 1009.5
20220118074844 24 11 5.0 0.0 0.00 0.00 0.00 90 1009.5
20220118074347 24 16 5.0 0.0 0.00 0.00 0.00 89 1009.8
20220118073848 24 19 4.0 0.0 0.00 0.00 0.00 89 1009.1
20220118073354 24 2 3.0 0.0 0.00 0.00 0.00 90 1009.1
20220118072847 24 0 3.0 0.0 0.00 0.00 0.00 91 1009.4
20220118072354 24 0 4.0 0.0 0.00 0.00 0.00 91 1008.8
20220118071842 24 320 0.0 0.0 0.00 0.00 0.00 91 1008.9
20220118071334 24 319 1.0 0.0 0.00 0.00 0.00 91 1009.0
20220118070844 24 319 2.0 0.0 0.00 0.00 0.00 91 1009.0
20220118070356 24 319 4.0 0.0 0.00 0.00 0.00 91 1008.5
20220118065836 24 319 0.0 0.0 0.00 0.00 0.00 91 1008.5
20220118065347 24 320 0.0 0.0 0.00 0.00 0.00 91 1008.1
20220118064835 24 320 0.0 0.0 0.00 0.00 0.00 91 1008.6
20220118064344 24 319 0.0 0.0 0.00 0.00 0.00 90 1008.6
20220118063834 24 319 0.0 0.0 0.00 0.00 0.00 90 1008.6
20220118063345 24 319 0.0 0.0 0.00 0.00 0.00 90 1008.2
20220118062845 25 319 0.0 0.0 0.00 0.00 0.00 90 1008.4
20220118062339 25 319 0.0 0.0 0.00 0.00 0.00 90 1007.9
20220118061849 25 319 0.0 0.0 0.00 0.00 0.00 90 1008.3
20220118061338 25 319 0.0 0.0 0.00 0.00 0.00 90 1008.5
20220118060848 25 319 2.0 0.0 0.00 0.00 0.00 90 1008.6
20220118060359 25 319 0.0 0.0 0.00 0.00 0.00 90 1008.0
20220118055838 25 319 0.0 0.0 0.00 0.00 0.00 89 1008.3
20220118055345 25 320 0.0 0.0 0.00 0.00 0.00 89 1008.4
20220118054834 25 319 0.0 0.0 0.00 0.00 0.00 89 1008.2
20220118054342 25 320 1.0 0.0 0.00 0.00 0.00 88 1008.0
20220118053852 25 319 0.0 0.0 0.00 0.00 0.00 89 1007.8
20220118053401 25 319 0.0 0.0 0.00 0.00 0.00 88 1007.9
20220118052842 25 319 0.0 0.0 0.00 0.00 0.00 88 1008.0
20220118052349 25 319 0.0 0.0 0.00 0.00 0.00 88 1007.8
20220118051840 25 319 0.0 0.0 0.00 0.00 0.00 87 1008.1
20220118051351 25 319 0.0 0.0 0.00 0.00 0.00 87 1007.9
20220118050842 25 346 0.0 0.0 0.00 0.00 0.00 87 1007.6
20220118050351 25 77 4.0 0.0 0.00 0.00 0.00 87 1007.6
20220118045845 25 3 2.0 0.0 0.00 0.00 0.00 87 1007.6
20220118045349 25 359 1.0 0.0 0.00 0.00 0.00 87 1007.4
20220118044838 25 335 0.0 0.0 0.00 0.00 0.00 87 1007.4
20220118044347 25 22 3.0 0.0 0.00 0.00 0.00 86 1007.5
20220118043838 25 321 4.0 0.0 0.00 0.00 0.00 86 1007.5
20220118043405 25 315 5.0 0.0 0.00 0.00 0.00 86 1007.2
20220118042840 25 357 0.0 0.0 0.00 0.00 0.00 86 1007.3
20220118042349 25 272 3.0 0.0 0.00 0.00 0.00 86 1007.5
20220118041841 25 280 2.0 0.0 0.00 0.00 0.00 85 1007.3
20220118041343 25 40 4.0 0.0 0.00 0.00 0.00 86 1007.4
20220118040847 25 346 1.0 0.0 0.00 0.00 0.00 85 1007.0
20220118040356 25 2 1.0 0.0 0.00 0.00 0.00 86 1007.3
20220118035833 25 321 1.0 0.0 0.00 0.00 0.00 86 1006.8
20220118035343 25 53 2.0 0.0 0.00 0.00 0.00 85 1007.2
20220118034851 25 341 7.0 0.0 0.00 0.00 0.00 85 1007.1
20220118034339 25 15 2.0 0.0 0.00 0.00 0.00 85 1006.9
20220118033846 25 334 3.0 0.0 0.00 0.00 0.00 85 1007.3
20220118033357 25 0 1.0 0.0 0.00 0.00 0.00 85 1007.2
20220118032841 25 339 1.0 0.0 0.00 0.00 0.00 85 1007.1
20220118032348 25 276 2.0 0.0 0.00 0.00 0.00 84 1007.5
20220118031857 25 6 2.0 0.0 0.00 0.00 0.00 84 1006.7
20220118031341 25 300 1.0 0.0 0.00 0.00 0.00 84 1006.8
20220118030849 25 341 0.0 0.0 0.00 0.00 0.00 84 1006.9
20220118030402 25 0 1.0 0.0 0.00 0.00 0.00 84 1006.7
20220118025836 26 11 4.0 0.0 0.00 0.00 0.00 84 1006.9
20220118025344 26 6 5.0 0.0 0.00 0.00 0.00 84 1006.7
20220118024832 26 283 4.0 0.0 0.00 0.00 0.00 85 1006.6
20220118024343 26 298 1.0 0.0 0.00 0.00 0.00 85 1006.6
20220118023845 26 292 4.0 0.0 0.00 0.00 0.00 85 1006.6
20220118023357 26 38 1.0 0.0 0.00 0.00 0.00 85 1006.6
20220118022851 26 344 3.0 0.0 0.00 0.00 0.00 86 1006.4
20220118022341 26 14 2.0 0.0 0.00 0.00 0.00 86 1005.9
20220118021847 26 47 3.0 0.0 0.00 0.00 0.00 86 1006.6
20220118021354 26 2 2.0 0.0 0.00 0.00 0.00 86 1006.0
20220118020834 26 341 2.0 0.0 0.00 0.00 0.00 85 1006.1
20220118020347 26 340 1.0 0.0 0.00 0.00 0.00 85 1005.9
20220118015847 26 358 3.0 0.0 0.00 0.00 0.00 85 1006.0
20220118015337 26 314 3.0 0.0 0.00 0.00 0.00 85 1006.0
20220118014847 26 348 3.0 0.0 0.00 0.00 0.00 85 1005.7
20220118014334 26 356 2.0 0.0 0.00 0.00 0.00 84 1005.5
20220118013843 26 341 2.0 0.0 0.00 0.00 0.00 85 1005.4
20220118013352 26 68 3.0 0.0 0.00 0.00 0.00 85 1005.7
20220118012845 26 0 3.0 0.0 0.00 0.00 0.00 85 1005.3
20220118012348 26 301 4.0 0.0 0.00 0.00 0.00 85 1005.4
20220118011836 26 336 1.0 0.0 0.00 0.00 0.00 84 1005.5
20220118011349 26 18 1.0 0.0 0.00 0.00 0.00 84 1005.3
20220118010847 26 22 1.0 0.0 0.00 0.00 0.00 84 1005.7
20220118010352 26 301 2.0 0.0 0.00 0.00 0.00 84 1005.4
20220118005834 26 304 4.0 0.0 0.00 0.00 0.00 85 1005.3
20220118005347 26 35 2.0 0.0 0.00 0.00 0.00 84 1005.2
20220118004849 26 332 1.0 0.0 0.00 0.00 0.00 85 1005.6
20220118004342 26 21 6.0 0.0 0.00 0.00 0.00 85 1005.0
20220118003843 26 245 3.0 0.0 0.00 0.00 0.00 86 1004.7
20220118003351 26 48 2.0 0.0 0.00 0.00 0.00 87 1004.7
20220118002845 26 79 3.0 0.0 0.00 0.00 0.00 87 1004.7
20220118002351 26 315 4.0 0.0 0.00 0.00 0.00 87 1004.8
20220118001840 26 333 7.0 0.0 0.00 0.00 0.00 87 1004.5
20220118001348 26 91 1.0 0.0 0.00 0.00 0.00 88 1004.5
20220118000853 27 328 4.0 0.0 0.00 0.00 0.00 89 1004.6
20220118000400 27 349 5.0 0.0 0.00 0.00 0.00 90 1004.1
20220117235855 27 45 4.0 0.0 0.00 0.00 0.00 90 1004.5
20220117235337 27 25 6.0 0.0 0.00 0.00 0.00 90 1004.1
20220117234845 27 353 6.0 0.0 0.00 0.00 0.00 90 1004.2
20220117234347 27 314 8.0 0.0 0.00 0.00 0.00 90 1003.8
20220117233835 27 336 0.0 0.0 0.00 0.00 0.00 89 1003.9
20220117233345 27 180 3.0 0.0 0.00 0.00 0.00 89 1003.7
20220117232845 27 6 3.0 0.0 0.00 0.00 0.00 89 1003.7
20220117232347 27 355 2.0 0.0 0.00 0.00 0.00 89 1003.2
20220117231838 27 0 3.0 0.0 0.00 0.00 0.00 88 1003.2
20220117231349 27 350 1.0 0.0 0.00 0.00 0.00 89 1003.3
20220117230838 27 352 2.0 0.0 0.00 0.00 0.00 89 1003.1
20220117230346 27 354 0.0 0.0 0.00 0.00 0.00 89 1003.0
20220117225845 27 317 6.0 0.0 0.00 0.00 0.00 89 1003.0
20220117225336 27 28 2.0 0.0 0.00 0.00 0.00 89 1002.5
20220117224842 27 7 3.0 0.0 0.00 0.00 0.00 89 1002.6
20220117224351 27 274 4.0 0.0 0.00 0.00 0.00 89 1002.5
20220117223838 27 17 3.0 0.0 0.00 0.00 0.00 89 1002.3
20220117223348 27 330 2.0 0.0 0.00 0.00 0.00 89 1002.3
20220117222847 27 359 1.0 0.0 0.00 0.00 0.00 88 1002.5
20220117222337 27 351 1.0 0.0 0.00 0.00 0.00 88 1002.6
20220117221844 27 318 1.0 0.0 0.00 0.00 0.00 88 1002.6
20220117221353 27 81 2.0 0.0 0.00 0.00 0.00 87 1002.7
20220117220836 27 336 3.0 0.0 0.00 0.00 0.00 87 1002.2
20220117220400 27 7 2.0 0.0 0.00 0.00 0.00 87 1002.1
20220117215834 27 334 4.0 0.0 0.00 0.00 0.00 86 1001.8
20220117215345 27 117 3.0 0.0 0.00 0.00 0.00 87 1002.0
20220117214833 27 352 3.0 0.0 0.00 0.00 0.00 86 1002.3
20220117214341 27 2 4.0 0.0 0.00 0.00 0.00 86 1002.0
20220117213850 27 350 2.0 0.0 0.00 0.00 0.00 86 1002.2
20220117213401 27 322 5.0 0.0 0.00 0.00 0.00 85 1002.0
20220117212839 28 342 3.0 0.0 0.00 0.00 0.00 85 1002.0
20220117212345 28 347 1.0 0.0 0.00 0.00 0.00 84 1001.6
20220117211835 28 319 4.0 0.0 0.00 0.00 0.00 84 1001.3
20220117211345 28 93 2.0 0.0 0.00 0.00 0.00 84 1001.5
20220117210833 28 308 2.0 0.0 0.00 0.00 0.00 85 1001.3
20220117210343 28 271 1.0 0.0 0.00 0.00 0.00 84 1001.7
20220117205844 28 48 3.0 0.0 0.00 0.00 0.00 84 1001.4
20220117205345 28 302 4.0 0.0 0.00 0.00 0.00 84 1001.4
20220117204836 28 303 6.0 0.0 0.00 0.00 0.00 84 1001.2
20220117204342 28 335 4.0 0.0 0.00 0.00 0.00 84 1001.1
20220117203835 28 351 3.0 0.0 0.00 0.00 0.00 84 1001.1
20220117203344 28 299 5.0 0.0 0.00 0.00 0.00 84 1000.9
20220117202841 28 40 2.0 0.0 0.00 0.00 0.00 85 1000.5
20220117202345 28 282 2.0 0.0 0.00 0.00 0.00 85 1000.6
20220117201855 28 336 1.0 0.0 0.00 0.00 0.00 85 1000.7
20220117201341 28 193 4.0 0.0 0.00 0.00 0.00 84 1000.5
20220117200849 28 219 3.0 0.0 0.00 0.00 0.00 85 1000.6
20220117200358 28 337 2.0 0.0 0.00 0.00 0.00 85 1000.7
20220117195838 28 303 3.0 0.0 0.00 0.00 0.00 84 1000.5
20220117195348 28 50 2.0 0.0 0.00 0.00 0.00 84 1000.5
20220117194836 28 0 4.0 0.0 0.00 0.00 0.00 84 1000.3
20220117194340 28 37 4.0 0.0 0.00 0.00 0.00 84 1000.3
20220117193848 28 340 4.0 0.0 0.00 0.00 0.00 85 1000.6
20220117193357 28 290 2.0 0.0 0.00 0.00 0.00 84 1000.2
20220117192835 28 5 6.0 0.0 0.00 0.00 0.00 86 999.8
20220117192340 28 30 6.0 0.0 0.00 0.00 0.00 86 1000.2
20220117191848 28 346 4.0 0.0 0.00 0.00 0.00 87 1000.2
20220117191336 27 347 0.0 0.0 0.00 0.00 0.00 89 1000.2
20220117190846 27 3 4.0 0.0 0.00 0.00 0.00 89 999.9
20220117190350 27 348 7.0 0.0 0.00 0.00 0.00 90 1000.1
20220117185844 27 359 3.0 0.0 0.00 0.00 0.00 90 1000.4
20220117185355 27 12 4.0 0.0 0.00 0.00 0.00 91 1000.4
20220117184859 27 7 3.0 0.0 0.00 0.00 0.00 91 1000.1
20220117184342 26 16 6.0 0.0 0.00 0.00 0.00 92 1000.2
20220117183851 26 308 8.0 0.0 0.00 0.00 0.00 92 1000.3
20220117183356 26 263 5.0 0.0 0.00 0.00 0.00 92 1000.3
20220117182831 26 319 7.0 0.0 0.00 0.00 0.00 93 1000.1
20220117182340 27 343 5.0 0.0 0.00 0.00 0.00 92 1000.6
20220117181844 27 0 1.0 0.0 0.00 0.00 0.00 93 1000.3
20220117181336 27 344 1.0 0.0 0.00 0.00 0.00 92 1000.2
20220117180845 27 335 4.0 0.0 0.00 0.00 0.00 92 1000.5
20220117180355 27 357 3.0 0.0 0.00 0.00 0.00 92 1000.4
20220117175851 27 336 6.0 0.0 0.00 0.00 0.00 93 1000.7
20220117175338 27 341 0.0 0.0 0.00 0.00 0.00 93 1000.6
20220117174849 27 357 2.0 0.0 0.00 0.00 0.00 92 1001.1
20220117174351 27 357 0.0 0.0 0.00 0.00 0.00 92 1001.0
20220117173841 27 358 2.0 0.0 0.00 0.00 0.00 92 1000.7
20220117173351 27 352 5.0 0.0 0.00 0.00 0.00 92 1000.5
20220117172846 26 20 3.0 0.0 0.00 0.00 0.00 91 1000.4
20220117172352 26 0 3.0 0.0 0.00 0.00 0.00 92 1000.0
20220117171839 26 44 1.0 0.0 0.00 0.00 0.00 91 1000.4
20220117171342 26 319 1.0 0.0 0.00 0.00 0.00 91 1000.5
20220117170851 26 4 1.0 0.0 0.00 0.00 0.00 92 1000.5
20220117170356 26 300 4.0 0.0 0.00 0.00 0.00 91 1000.9
20220117165838 26 0 2.0 0.0 0.00 0.00 0.00 91 1000.3
20220117165350 26 302 2.0 0.0 0.00 0.00 0.00 92 1000.4
20220117164839 26 350 4.0 0.0 0.00 0.00 0.00 91 1000.6
20220117164348 26 329 2.0 0.0 0.00 0.00 0.00 91 1001.0
20220117163838 26 353 8.0 0.0 0.00 0.00 0.00 91 1000.8
20220117163346 26 0 3.0 0.0 0.00 0.00 0.00 91 1000.9
20220117162844 26 24 2.0 0.0 0.00 0.00 0.00 91 1000.4
20220117162350 26 10 10.0 0.0 0.00 0.00 0.00 90 1000.4
20220117161856 26 8 5.0 0.0 0.00 0.00 0.00 91 1000.6
20220117161339 26 355 3.0 0.0 0.00 0.00 0.00 90 1000.4
20220117160849 26 8 4.0 0.0 0.00 0.00 0.00 90 1000.7
20220117160358 26 358 3.0 0.0 0.00 0.00 0.00 91 1001.1
20220117155835 26 357 5.0 0.0 0.00 0.00 0.00 90 1000.6
20220117155337 26 1 6.0 0.0 0.00 0.00 0.00 90 1000.7
20220117154845 26 10 2.0 0.0 0.00 0.00 0.00 90 1000.7
20220117154348 26 20 8.0 0.0 0.00 0.00 0.00 90 1000.7
20220117153850 26 18 2.0 0.0 0.00 0.00 0.00 89 1000.7
20220117153353 26 10 4.0 0.0 0.00 0.00 0.00 89 1000.9
20220117152849 26 0 7.0 0.0 0.00 0.00 0.00 90 1000.4
20220117152336 26 4 8.0 0.0 0.00 0.00 0.00 90 1000.7
20220117151844 26 25 10.0 0.0 0.00 0.00 0.00 90 1000.5
20220117151348 25 21 6.0 0.0 0.00 0.00 0.00 91 1000.4
20220117150834 25 2 4.0 0.0 0.00 0.00 0.00 90 1000.3
20220117150345 25 356 4.0 0.0 0.00 0.00 0.00 91 1000.3
20220117145838 25 30 6.0 0.0 0.00 0.00 0.00 91 1000.2
20220117145345 25 6 3.0 0.0 0.00 0.00 0.00 92 1000.4
20220117144850 24 39 6.0 0.0 0.00 0.00 0.00 92 1000.4
20220117144335 24 16 10.0 0.0 0.00 0.00 0.00 92 1000.5
20220117143846 24 20 5.0 0.0 0.00 0.00 0.00 92 1000.4
20220117143407 24 0 3.0 0.0 0.00 0.00 0.00 93 1000.4
20220117142838 24 2 9.0 0.0 0.00 0.00 0.00 93 1000.2
20220117142345 23 11 5.0 0.0 0.00 0.00 0.00 93 1000.7
20220117141850 23 358 5.0 0.0 0.00 0.00 0.00 93 1000.2
20220117141337 23 0 3.0 0.0 0.00 0.00 0.00 92 1000.5
20220117140842 23 355 2.0 0.0 0.00 0.00 0.00 92 1000.1
20220117140354 22 28 10.0 0.0 0.00 0.00 0.00 92 1000.5
20220117135848 22 347 3.0 0.0 0.00 0.00 0.00 92 1000.0
20220117135337 22 13 3.0 0.0 0.00 0.00 0.00 92 1000.0
20220117134847 22 359 8.0 0.0 0.00 0.00 0.00 92 999.7
20220117134333 22 337 4.0 0.0 0.00 0.00 0.00 91 999.8
20220117133841 22 30 3.0 0.0 0.00 0.00 0.00 91 999.6
20220117133346 21 0 3.0 0.0 0.00 0.00 0.00 91 999.7
20220117132846 21 15 3.0 0.0 0.00 0.00 0.00 91 999.6
20220117132349 21 0 4.0 0.0 0.00 0.00 0.00 92 999.7
20220117131840 21 350 7.0 0.0 0.00 0.00 0.00 91 999.8
20220117131347 21 5 2.0 0.0 0.00 0.00 0.00 90 999.3
20220117130849 21 7 7.0 0.0 0.00 0.00 0.00 91 1000.1
20220117130336 21 0 2.0 0.0 0.00 0.00 0.00 91 999.4
20220117125850 21 118 3.0 11.0 0.00 0.00 0.00 90 999.3
20220117125358 21 1 4.0 11.0 0.00 0.00 0.00 90 999.6
20220117124900 21 43 4.0 10.0 0.00 0.00 0.00 90 999.0
20220117124400 21 0 5.0 8.0 0.00 0.00 0.00 90 999.4
20220117123843 21 27 3.0 6.0 0.00 0.00 0.00 90 999.4
20220117123348 20 352 4.0 9.0 0.00 0.00 0.00 90 999.3
20220117122844 20 26 4.0 9.0 0.00 0.00 0.00 90 999.4
20220117122355 20 355 3.0 9.0 0.00 0.00 0.00 90 999.7
20220117121842 19 53 4.0 8.0 0.00 0.00 0.00 90 999.1
20220117121350 19 11 3.0 8.0 0.00 0.00 0.00 89 999.5
20220117120854 19 339 2.0 7.0 0.00 0.00 0.00 89 999.6
20220117120402 18 18 3.0 9.0 0.00 0.00 0.00 89 999.6
20220117115852 18 39 3.0 9.0 0.00 0.00 0.00 89 999.2
20220117115351 18 114 3.0 8.0 0.00 0.00 0.00 90 999.4
20220117114837 17 337 2.0 9.0 0.00 0.00 0.00 90 999.6
20220117114346 17 346 3.0 9.0 0.00 0.00 0.00 90 999.6
20220117113835 17 300 1.0 7.0 0.00 0.00 0.00 90 999.4
20220117113344 16 0 3.0 6.0 0.00 0.00 0.00 90 999.5
20220117112844 16 0 2.0 6.0 0.00 0.00 0.00 90 999.4
20220117112334 16 0 3.0 6.0 0.00 0.00 0.00 89 999.7
20220117111844 16 359 2.0 5.0 0.00 0.00 0.00 88 999.5
20220117111352 16 288 0.0 4.0 0.00 0.00 0.00 88 999.8
20220117110837 16 342 3.0 9.0 0.00 0.00 0.00 88 999.9
20220117110406 16 18 2.0 9.0 0.00 0.00 0.00 88 999.3
20220117105838 16 355 2.0 6.0 0.00 0.00 0.00 90 999.5